Volver al catálogo

LEMUR 2 SQUIRRELCOMM

ActivoCienciaSSO
NORAD 60578·PAYLOAD·🇺🇸 United States

Lanzado Aug 16, 2024 desde Vandenberg Space Force Base

Loading…

Próximos Pases (próximas 24 horas)

TLE

ActualizadoSource: Space-Track

Época: Sep 14, 2026, 11:02 UTC

1 60578U 24149DQ  26257.45983147  .00004387  00000-0  28911-3 0  9995
2 60578  97.6656 338.1193 0006708 105.3400 254.8569 15.08007901113857

Sigue LEMUR 2 SQUIRRELCOMM en tiempo real con AllMySat

Download on the App Store